Regional Weather Roundup
Issued by NWS

Home | Current Version | Previous Version | Graphics & Text | Print | Product List | Glossary On
Versions: 1 2 3 4 5 6 7 8 9 10 11 12 13 14 15 16 17 18 19 20 21 22 23 24 25 26 27 28 29 30 31 32 33 34 35 36 37 38 39 40 41 42 43 44 45 46 47 48 49 50
442
ASUS43 KOAX 171210
RWRNE

WEATHER ROUNDUP FOR NEBRASKA
NATIONAL WEATHER SERVICE OMAHA NE
600 AM CST TUE JAN 17 2017

NOTES: SATELLITE DATA IS BEING USED TO AUGMENT CLOUD COVER ABOVE
       12000 FEET.
       "FAIR" INDICATES FEW OR NO CLOUDS BELOW 12,000 FEET WITH NO
       SIGNIFICANT WEATHER AND/OR OBSTRUCTIONS TO VISIBILITY.

  * THESE STATIONS DO NOT REPORT WEATHER SUCH AS RAIN...SNOW OR FOG.

NEZ001>004-019>022-054>056-171300-
NEBRASKA PANHANDLE

CITY           SKY/WX    TMP DP  RH WIND       PRES   REMARKS
SCOTTSBLUFF    CLOUDY    13   9  84 NW6       30.05F WCI   4
6HR MIN TEMP:  13; 6HR MAX TEMP:  21;

ALLIANCE       CLOUDY    11   7  84 W5        30.02F WCI   3
6HR MIN TEMP:   9; 6HR MAX TEMP:  20;

CHADRON        CLOUDY     8   3  80 W6        30.02F WCI  -2
6HR MIN TEMP:   6; 6HR MAX TEMP:  16;

KIMBALL        CLOUDY    14  10  84 W7        30.04F WCI   4
SIDNEY         CLOUDY    16   9  74 W8        30.05F WCI   5
6HR MIN TEMP:  14; 6HR MAX TEMP:  22;

$$

NEZ057>060-069>072-079>082-171300-
SOUTHWEST NEBRASKA

CITY           SKY/WX    TMP DP  RH WIND       PRES   REMARKS
NORTH PLATTE   CLOUDY    21  17  84 NW5       30.06F WCI  15
6HR MIN TEMP:  19; 6HR MAX TEMP:  25;

IMPERIAL       CLOUDY    22  15  75 W6        30.08S WCI  14
6HR MIN TEMP:  22; 6HR MAX TEMP:  29;

LEXINGTON      CLOUDY    25  20  83 W9        30.06S WCI  15
MCCOOK         CLEAR     25  21  85 W9        30.09S WCI  15
6HR MIN TEMP:  25; 6HR MAX TEMP:  31;

OGALLALA       CLOUDY    21  17  83 W12       30.07S WCI   9
$$

NEZ005>010-023>029-035>040-094-171300-
NORTH CENTRAL NEBRASKA

CITY           SKY/WX    TMP DP  RH WIND       PRES   REMARKS
VALENTINE      CLOUDY    15  10  80 W9        30.03F WCI   3
6HR MIN TEMP:  12; 6HR MAX TEMP:  20;

AINSWORTH      CLOUDY    17  15  90 W7        30.02S WCI   8
BROKEN BOW     CLOUDY    24  18  77 NW8       30.04S WCI  15
6HR MIN TEMP:  22; 6HR MAX TEMP:  27;

O`NEILL        CLOUDY    19  16  89 W8        30.02F WCI   8
ORD            CLOUDY    19  14  81 N6        30.03F WCI  11
6HR MIN TEMP:  19; 6HR MAX TEMP:  24;

THEDFORD       CLOUDY    21  17  84 W3        30.03F
$$

NEZ041-046>049-061>064-073>077-083>087-171300-
SOUTH CENTRAL NEBRASKA

CITY           SKY/WX    TMP DP  RH WIND       PRES   REMARKS
GRAND ISLAND   CLOUDY    22  20  92 NW8         N/A  WCI  12
6HR MIN TEMP:  21; 6HR MAX TEMP:  28;

AURORA         CLEAR     24  21  89 NW5       30.04S WCI  18
HASTINGS       CLOUDY    25  20  81 NW9       30.06R WCI  15
6HR MIN TEMP:  25; 6HR MAX TEMP:  31;

HEBRON         PTCLDY    28  25  89 NW3       30.06R
HOLDREGE       CLOUDY    25  22  86 CALM      30.06S
KEARNEY *      CLOUDY    23  18  80 CALM      30.06S
YORK           CLOUDY    25  23  93 MISG      30.05R
$$

NEZ011>018-030>034-042>045-171300-
NORTHEAST NEBRASKA

CITY           SKY/WX    TMP DP  RH WIND       PRES   REMARKS
NORFOLK        CLOUDY    17  13  84 NW9       30.03S WCI   6
6HR MIN TEMP:  17; 6HR MAX TEMP:  24;

ALBION         CLOUDY    18  14  86 NW3       30.03F FOG
BLAIR          CLOUDY    27  25  94 NW6       30.00R FOG     WCI  20
FREMONT        CLOUDY    25  22  87 NW15      30.04R WCI  12
TEKAMAH        CLOUDY    26  22  84 NW12      30.03R WCI  16
6HR MIN TEMP:  25; 6HR MAX TEMP:  32;

WAYNE          CLOUDY    17  14  87 CALM      30.04S
$$

NEZ050>053-065>068-078-088>093-171300-
SOUTHEAST NEBRASKA

CITY           SKY/WX    TMP DP  RH WIND       PRES   REMARKS
LINCOLN        CLOUDY    26  20  77 NW10      30.05R WCI  16
6HR MIN TEMP:  26; 6HR MAX TEMP:  33;

OMAHA EPPLEY   CLOUDY    29  24  82 N8        30.03R WCI  21
6HR MIN TEMP:  29; 6HR MAX TEMP:  34;

BEATRICE       CLOUDY    30  26  86 NW7       30.04R WCI  23
FALLS CITY     CLOUDY    33  31  92 NW9       30.02R WCI  25
6HR MIN TEMP:  33; 6HR MAX TEMP:  34;

NEBRASKA CITY  CLOUDY    30  30 100 NW10      30.02R FOG     WCI  21
PLATTSMOUTH    CLOUDY    29  25  84 W8        30.01R WCI  22
$$

NEZ044-045-051>053-067-171300-
OMAHA AREA

CITY           SKY/WX    TMP DP  RH WIND       PRES   REMARKS
OMAHA EPPLEY   CLOUDY    29  24  82 N8        30.03R WCI  21
6HR MIN TEMP:  29; 6HR MAX TEMP:  34;

BLAIR          CLOUDY    27  25  94 NW6       30.00R FOG     WCI  20
FREMONT        CLOUDY    25  22  87 NW15      30.04R WCI  12
MILLARD        CLOUDY    30  26  85 NW7       30.02R WCI  23
OFFUTT AFB     CLOUDY    29  29 100 NW10      30.02R WCI  20
PLATTSMOUTH    CLOUDY    29  25  84 W8        30.01R WCI  22
WAHOO          CLOUDY    26  21  81 NW14G20   30.03R WCI  14
$$




USA.gov is the U.S. government's official web portal to all federal, state and local government web resources and services.